Tracking 25734 objects as of 27-May-2022
HD Live streaming from Space Station
objects crossing your sky now

STARLINK-1119

Track STARLINK-1119 now!
10-day predictions
STARLINK-1119 is classified as:


NORAD ID: 44928
Int'l Code: 2020-001Q
Perigee: 553.1 km
Apogee: 555.6 km
Inclination: 53.1 °
Period: 95.6 minutes
Semi major axis: 6925 km
RCS: Unknown
Launch date: January 7, 2020
Source: United States (US)
Launch site: AIR FORCE EASTERN TEST RANGE (AFETR)
aabbcc
Your satellite tracking list
Your tracking list is empty




NASA's NSSDC Master Catalog

Two Line Element Set (TLE):
1 44928U 20001Q   22146.23923581  .00000079  00000-0  24212-4 0  9999
2 44928  53.0545  77.1621 0001808  55.6395 304.4765 15.06396355131338
Source of the keplerian elements: AFSPC